Year,Month,Day,Hour,Minute,Value (Times are PST for temperature in C)
2014,05,23,00,00,14.90
2014,05,23,00,01,14.90
2014,05,23,00,02,14.90
2014,05,23,00,03,14.90
2014,05,23,00,04,14.90
2014,05,23,00,05,14.90
2014,05,23,00,06,14.90
2014,05,23,00,07,14.90
2014,05,23,00,08,14.90
2014,05,23,00,09,14.80
2014,05,23,00,10,14.80
2014,05,23,00,11,14.80
2014,05,23,00,12,14.80
2014,05,23,00,13,14.80
2014,05,23,00,14,14.80
2014,05,23,00,15,14.80
2014,05,23,00,16,14.80
2014,05,23,00,17,14.80
2014,05,23,00,18,14.80
2014,05,23,00,19,14.80
2014,05,23,00,20,14.80
2014,05,23,00,21,14.80
2014,05,23,00,22,14.80
2014,05,23,00,23,14.70
2014,05,23,00,24,14.70
2014,05,23,00,25,14.70
2014,05,23,00,26,14.70
2014,05,23,00,27,14.70
2014,05,23,00,28,14.70
2014,05,23,00,29,14.60
2014,05,23,00,30,14.60
2014,05,23,00,31,14.60
2014,05,23,00,32,14.60
2014,05,23,00,33,14.60
2014,05,23,00,34,14.60
2014,05,23,00,35,14.60
2014,05,23,00,36,14.60
2014,05,23,00,37,14.60
2014,05,23,00,38,14.60
2014,05,23,00,39,14.60
2014,05,23,00,40,14.60
2014,05,23,00,41,14.60
2014,05,23,00,42,14.60
2014,05,23,00,43,14.50
2014,05,23,00,44,14.50
2014,05,23,00,45,14.50
2014,05,23,00,46,14.50
2014,05,23,00,47,14.40
2014,05,23,00,48,14.40
2014,05,23,00,49,14.30
2014,05,23,00,50,14.30
2014,05,23,00,51,14.20
2014,05,23,00,52,14.20
2014,05,23,00,53,14.10
2014,05,23,00,54,14.00
2014,05,23,00,55,14.00
2014,05,23,00,56,13.90
2014,05,23,00,57,13.90
2014,05,23,00,58,13.90
2014,05,23,00,59,13.80
2014,05,23,01,00,13.80
2014,05,23,01,01,13.70
2014,05,23,01,02,13.60
2014,05,23,01,03,13.60
2014,05,23,01,04,13.60
2014,05,23,01,05,13.60
2014,05,23,01,06,13.50
2014,05,23,01,07,13.50
2014,05,23,01,08,13.50
2014,05,23,01,09,13.50
2014,05,23,01,10,13.50
2014,05,23,01,11,13.50
2014,05,23,01,12,13.50
2014,05,23,01,13,13.50
2014,05,23,01,14,13.50
2014,05,23,01,15,13.60
2014,05,23,01,16,13.60
2014,05,23,01,17,13.60
2014,05,23,01,18,13.60
2014,05,23,01,19,13.60
2014,05,23,01,20,13.60
2014,05,23,01,21,13.60
2014,05,23,01,22,13.60
2014,05,23,01,23,13.70
2014,05,23,01,24,13.70
2014,05,23,01,25,13.70
2014,05,23,01,26,13.70
2014,05,23,01,27,13.80
2014,05,23,01,28,13.80
2014,05,23,01,29,13.80
2014,05,23,01,30,13.80
2014,05,23,01,31,13.90
2014,05,23,01,32,13.90
2014,05,23,01,33,13.90
2014,05,23,01,34,13.90
2014,05,23,01,35,14.00
2014,05,23,01,36,14.00
2014,05,23,01,37,14.10
2014,05,23,01,38,14.10
2014,05,23,01,39,14.10
2014,05,23,01,40,14.20
2014,05,23,01,41,14.20
2014,05,23,01,42,14.20
2014,05,23,01,43,14.20
2014,05,23,01,44,14.20
2014,05,23,01,45,14.20
2014,05,23,01,46,14.20
2014,05,23,01,47,14.20
2014,05,23,01,48,14.30
2014,05,23,01,49,14.30
2014,05,23,01,50,14.30
2014,05,23,01,51,14.30
2014,05,23,01,52,14.30
2014,05,23,01,53,14.30
2014,05,23,01,54,14.30
2014,05,23,01,55,14.30
2014,05,23,01,56,14.30
2014,05,23,01,57,14.30
2014,05,23,01,58,14.30
2014,05,23,01,59,14.30
2014,05,23,02,00,14.30
2014,05,23,02,01,14.30
2014,05,23,02,02,14.30
2014,05,23,02,03,14.40
2014,05,23,02,04,14.40
2014,05,23,02,05,14.40
2014,05,23,02,06,14.40
2014,05,23,02,07,14.40
2014,05,23,02,08,14.40
2014,05,23,02,09,14.40
2014,05,23,02,10,14.40
2014,05,23,02,11,14.40
2014,05,23,02,12,14.40
2014,05,23,02,13,14.40
2014,05,23,02,14,14.40
2014,05,23,02,15,14.40
2014,05,23,02,16,14.30
2014,05,23,02,17,14.30
2014,05,23,02,18,14.30
2014,05,23,02,19,14.30
2014,05,23,02,20,14.30
2014,05,23,02,21,14.30
2014,05,23,02,22,14.30
2014,05,23,02,23,14.30
2014,05,23,02,24,14.20
2014,05,23,02,25,14.20
2014,05,23,02,26,14.20
2014,05,23,02,27,14.20
2014,05,23,02,28,14.20
2014,05,23,02,29,14.20
2014,05,23,02,30,14.20
2014,05,23,02,31,14.20
2014,05,23,02,32,14.20
2014,05,23,02,33,14.20
2014,05,23,02,34,14.20
2014,05,23,02,35,14.20
2014,05,23,02,36,14.20
2014,05,23,02,37,14.20
2014,05,23,02,38,14.20
2014,05,23,02,39,14.20
2014,05,23,02,40,14.20
2014,05,23,02,41,14.20
2014,05,23,02,42,14.20
2014,05,23,02,43,14.20
2014,05,23,02,44,14.20
2014,05,23,02,45,14.20
2014,05,23,02,46,14.20
2014,05,23,02,47,14.20
2014,05,23,02,48,14.20
2014,05,23,02,49,14.20
2014,05,23,02,50,14.20
2014,05,23,02,51,14.20
2014,05,23,02,52,14.20
2014,05,23,02,53,14.20
2014,05,23,02,54,14.20
2014,05,23,02,55,14.20
2014,05,23,02,56,14.20
2014,05,23,02,57,14.20
2014,05,23,02,58,14.20
2014,05,23,02,59,14.20
2014,05,23,03,00,14.20
2014,05,23,03,01,14.10
2014,05,23,03,02,14.10
2014,05,23,03,03,14.10
2014,05,23,03,04,14.10
2014,05,23,03,05,14.10
2014,05,23,03,06,14.10
2014,05,23,03,07,14.00
2014,05,23,03,08,14.00
2014,05,23,03,09,14.00
2014,05,23,03,10,14.00
2014,05,23,03,11,13.90
2014,05,23,03,12,13.90
2014,05,23,03,13,13.80
2014,05,23,03,14,13.80
2014,05,23,03,15,13.80
2014,05,23,03,16,13.80
2014,05,23,03,17,13.80
2014,05,23,03,18,13.70
2014,05,23,03,19,13.60
2014,05,23,03,20,13.50
2014,05,23,03,21,13.40
2014,05,23,03,22,13.30
2014,05,23,03,23,13.20
2014,05,23,03,24,13.10
2014,05,23,03,25,13.00
2014,05,23,03,26,13.00
2014,05,23,03,27,12.90
2014,05,23,03,28,12.80
2014,05,23,03,29,12.80
2014,05,23,03,30,12.70
2014,05,23,03,31,12.70
2014,05,23,03,32,12.60
2014,05,23,03,33,12.60
2014,05,23,03,34,12.60
2014,05,23,03,35,12.60
2014,05,23,03,36,12.60
2014,05,23,03,37,12.60
2014,05,23,03,38,12.60
2014,05,23,03,39,12.60
2014,05,23,03,40,12.70
2014,05,23,03,41,12.70
2014,05,23,03,42,12.70
2014,05,23,03,43,12.70
2014,05,23,03,44,12.70
2014,05,23,03,45,12.60
2014,05,23,03,46,12.60
2014,05,23,03,47,12.60
2014,05,23,03,48,12.60
2014,05,23,03,49,12.60
2014,05,23,03,50,12.60
2014,05,23,03,51,12.60
2014,05,23,03,52,12.60
2014,05,23,03,53,12.60
2014,05,23,03,54,12.60
2014,05,23,03,55,12.60
2014,05,23,03,56,12.60
2014,05,23,03,57,12.60
2014,05,23,03,58,12.60
2014,05,23,03,59,12.60
2014,05,23,04,00,12.60
2014,05,23,04,01,12.70
2014,05,23,04,02,12.70
2014,05,23,04,03,12.70
2014,05,23,04,04,12.70
2014,05,23,04,05,12.70
2014,05,23,04,06,12.70
2014,05,23,04,07,12.70
2014,05,23,04,08,12.70
2014,05,23,04,09,12.70
2014,05,23,04,10,12.70
2014,05,23,04,11,12.70
2014,05,23,04,12,12.70
2014,05,23,04,13,12.70
2014,05,23,04,14,12.70
2014,05,23,04,15,12.70
2014,05,23,04,16,12.70
2014,05,23,04,17,12.70
2014,05,23,04,18,12.70
2014,05,23,04,19,12.70
2014,05,23,04,20,12.70
2014,05,23,04,21,12.70
2014,05,23,04,22,12.70
2014,05,23,04,23,12.70
2014,05,23,04,24,12.70
2014,05,23,04,25,12.70
2014,05,23,04,26,12.80
2014,05,23,04,27,12.80
2014,05,23,04,28,12.80
2014,05,23,04,29,12.80
2014,05,23,04,30,12.80
2014,05,23,04,31,12.80
2014,05,23,04,32,12.80
2014,05,23,04,33,12.80
2014,05,23,04,34,12.80
2014,05,23,04,35,12.80
2014,05,23,04,36,12.80
2014,05,23,04,37,12.80
2014,05,23,04,38,12.80
2014,05,23,04,39,12.80
2014,05,23,04,40,12.80
2014,05,23,04,41,12.80
2014,05,23,04,42,12.80
2014,05,23,04,43,12.80
2014,05,23,04,44,12.80
2014,05,23,04,45,12.90
2014,05,23,04,46,12.90
2014,05,23,04,47,12.90
2014,05,23,04,48,12.90
2014,05,23,04,49,12.90
2014,05,23,04,50,13.00
2014,05,23,04,51,13.00
2014,05,23,04,52,13.00
2014,05,23,04,53,13.00
2014,05,23,04,54,13.10
2014,05,23,04,55,13.10
2014,05,23,04,56,13.10
2014,05,23,04,57,13.10
2014,05,23,04,58,13.10
2014,05,23,04,59,13.20
2014,05,23,05,00,13.20
2014,05,23,05,01,13.20
2014,05,23,05,02,13.20
2014,05,23,05,03,13.20
2014,05,23,05,04,13.20
2014,05,23,05,05,13.30
2014,05,23,05,06,13.30
2014,05,23,05,07,13.30
2014,05,23,05,08,13.30
2014,05,23,05,09,13.30
2014,05,23,05,10,13.30
2014,05,23,05,11,13.30
2014,05,23,05,12,13.30
2014,05,23,05,13,13.30
2014,05,23,05,14,13.40
2014,05,23,05,15,13.40
2014,05,23,05,16,13.40
2014,05,23,05,17,13.50
2014,05,23,05,18,13.60
2014,05,23,05,19,13.60
2014,05,23,05,20,13.70
2014,05,23,05,21,13.70
2014,05,23,05,22,13.70
2014,05,23,05,23,13.70
2014,05,23,05,24,13.70
2014,05,23,05,25,13.80
2014,05,23,05,26,13.80
2014,05,23,05,27,13.80
2014,05,23,05,28,13.90
2014,05,23,05,29,13.90
2014,05,23,05,30,14.00
2014,05,23,05,31,14.00
2014,05,23,05,32,14.10
2014,05,23,05,33,14.10
2014,05,23,05,34,14.10
2014,05,23,05,35,14.10
2014,05,23,05,36,14.20
2014,05,23,05,37,14.20
2014,05,23,05,38,14.20
2014,05,23,05,39,14.30
2014,05,23,05,40,14.30
2014,05,23,05,41,14.30
2014,05,23,05,42,14.30
2014,05,23,05,43,14.40
2014,05,23,05,44,14.40
2014,05,23,05,45,14.40
2014,05,23,05,46,14.40
2014,05,23,05,47,14.50
2014,05,23,05,48,14.50
2014,05,23,05,49,14.50
2014,05,23,05,50,14.50
2014,05,23,05,51,14.50
2014,05,23,05,52,14.50
2014,05,23,05,53,14.50
2014,05,23,05,54,14.50
2014,05,23,05,55,14.50
2014,05,23,05,56,14.50
2014,05,23,05,57,14.50
2014,05,23,05,58,14.40
2014,05,23,05,59,14.40
2014,05,23,06,00,14.40
2014,05,23,06,01,14.40
2014,05,23,06,02,14.30
2014,05,23,06,03,14.30
2014,05,23,06,04,14.30
2014,05,23,06,05,14.20
2014,05,23,06,06,14.20
2014,05,23,06,07,14.20
2014,05,23,06,08,14.20
2014,05,23,06,09,14.20
2014,05,23,06,10,14.10
2014,05,23,06,11,14.10
2014,05,23,06,12,14.10
2014,05,23,06,13,14.10
2014,05,23,06,14,14.10
2014,05,23,06,15,14.10
2014,05,23,06,16,14.10
2014,05,23,06,17,14.10
2014,05,23,06,18,14.00
2014,05,23,06,19,14.00
2014,05,23,06,20,14.00
2014,05,23,06,21,14.00
2014,05,23,06,22,14.00
2014,05,23,06,23,13.90
2014,05,23,06,24,13.90
2014,05,23,06,25,13.90
2014,05,23,06,26,13.90
2014,05,23,06,27,13.90
2014,05,23,06,28,13.90
2014,05,23,06,29,13.90
2014,05,23,06,30,13.90
2014,05,23,06,31,13.90
2014,05,23,06,32,13.80
2014,05,23,06,33,13.80
2014,05,23,06,34,13.80
2014,05,23,06,35,13.70
2014,05,23,06,36,13.70
2014,05,23,06,37,13.70
2014,05,23,06,38,13.70
2014,05,23,06,39,13.70
2014,05,23,06,40,13.70
2014,05,23,06,41,13.70
2014,05,23,06,42,13.70
2014,05,23,06,43,13.70
2014,05,23,06,44,13.70
2014,05,23,06,45,13.60
2014,05,23,06,46,13.60
2014,05,23,06,47,13.60
2014,05,23,06,48,13.60
2014,05,23,06,49,13.50
2014,05,23,06,50,13.50
2014,05,23,06,51,13.50
2014,05,23,06,52,13.40
2014,05,23,06,53,13.40
2014,05,23,06,54,13.40
2014,05,23,06,55,13.40
2014,05,23,06,56,13.40
2014,05,23,06,57,13.30
2014,05,23,06,58,13.30
2014,05,23,06,59,13.30
2014,05,23,07,00,13.20
2014,05,23,07,01,13.20
2014,05,23,07,02,13.20
2014,05,23,07,03,13.20
2014,05,23,07,04,13.20
2014,05,23,07,05,13.10
2014,05,23,07,06,13.10
2014,05,23,07,07,13.10
2014,05,23,07,08,13.00
2014,05,23,07,09,13.00
2014,05,23,07,10,12.90
2014,05,23,07,11,12.90
2014,05,23,07,12,12.80
2014,05,23,07,13,12.80
2014,05,23,07,14,12.80
2014,05,23,07,15,12.70
2014,05,23,07,16,12.70
2014,05,23,07,17,12.70
2014,05,23,07,18,12.60
2014,05,23,07,19,12.60
2014,05,23,07,20,12.60
2014,05,23,07,21,12.50
2014,05,23,07,22,12.50
2014,05,23,07,23,12.50
2014,05,23,07,24,12.40
2014,05,23,07,25,12.40
2014,05,23,07,26,12.40
2014,05,23,07,27,12.40
2014,05,23,07,28,12.40
2014,05,23,07,29,12.40
2014,05,23,07,30,12.40
2014,05,23,07,31,12.40
2014,05,23,07,32,12.40
2014,05,23,07,33,12.40
2014,05,23,07,34,12.40
2014,05,23,07,35,12.40
2014,05,23,07,36,12.40
2014,05,23,07,37,12.40
2014,05,23,07,38,12.40
2014,05,23,07,39,12.40
2014,05,23,07,40,12.40
2014,05,23,07,41,12.50
2014,05,23,07,42,12.50
2014,05,23,07,43,12.50
2014,05,23,07,44,12.50
2014,05,23,07,45,12.50
2014,05,23,07,46,12.50
2014,05,23,07,47,12.50
2014,05,23,07,48,12.50
2014,05,23,07,49,12.50
2014,05,23,07,50,12.50
2014,05,23,07,51,12.50
2014,05,23,07,52,12.50
2014,05,23,07,53,12.50
2014,05,23,07,54,12.50
2014,05,23,07,55,12.50
2014,05,23,07,56,12.50
2014,05,23,07,57,12.40
2014,05,23,07,58,12.40
2014,05,23,07,59,12.40
2014,05,23,08,00,12.40
2014,05,23,08,01,12.40
2014,05,23,08,02,12.40
2014,05,23,08,03,12.40
2014,05,23,08,04,12.40
2014,05,23,08,05,12.40
2014,05,23,08,06,12.40
2014,05,23,08,07,12.40
2014,05,23,08,08,12.40
2014,05,23,08,09,12.50
2014,05,23,08,10,12.50
2014,05,23,08,11,12.50
2014,05,23,08,12,12.50
2014,05,23,08,13,12.60
2014,05,23,08,14,12.60
2014,05,23,08,15,12.60
2014,05,23,08,16,12.70
2014,05,23,08,17,12.70
2014,05,23,08,18,12.70
2014,05,23,08,19,12.70
2014,05,23,08,20,12.80
2014,05,23,08,21,12.80
2014,05,23,08,22,12.80
2014,05,23,08,23,12.80
2014,05,23,08,24,12.90
2014,05,23,08,25,12.90
2014,05,23,08,26,12.90
2014,05,23,08,27,12.90
2014,05,23,08,28,13.00
2014,05,23,08,29,13.00
2014,05,23,08,30,13.10
2014,05,23,08,31,13.10
2014,05,23,08,32,13.20
2014,05,23,08,33,13.20
2014,05,23,08,34,13.30
2014,05,23,08,35,13.30
2014,05,23,08,36,13.30
2014,05,23,08,37,13.30
2014,05,23,08,38,13.30
2014,05,23,08,39,13.30
2014,05,23,08,40,13.30
2014,05,23,08,41,13.30
2014,05,23,08,42,13.30
2014,05,23,08,43,13.30
2014,05,23,08,44,13.30
2014,05,23,08,45,13.30
2014,05,23,08,46,13.40
2014,05,23,08,47,13.30
2014,05,23,08,48,13.40
2014,05,23,08,49,13.40
2014,05,23,08,50,13.40
2014,05,23,08,51,13.40
2014,05,23,08,52,13.40
2014,05,23,08,53,13.30
2014,05,23,08,54,13.30
2014,05,23,08,55,13.30
2014,05,23,08,56,13.30
2014,05,23,08,57,13.30
2014,05,23,08,58,13.30
2014,05,23,08,59,13.30
2014,05,23,09,00,13.30
2014,05,23,09,01,13.30
2014,05,23,09,02,13.30
2014,05,23,09,03,13.30
2014,05,23,09,04,13.30
2014,05,23,09,05,13.30
2014,05,23,09,06,13.30
2014,05,23,09,07,13.30
2014,05,23,09,08,13.30
2014,05,23,09,09,13.30
2014,05,23,09,10,13.20
2014,05,23,09,11,13.00
2014,05,23,09,12,12.90
2014,05,23,09,13,12.80
2014,05,23,09,14,12.70
2014,05,23,09,15,12.60
2014,05,23,09,16,12.60
2014,05,23,09,17,12.50
2014,05,23,09,18,12.40
2014,05,23,09,19,12.30
2014,05,23,09,20,12.20
2014,05,23,09,21,12.10
2014,05,23,09,22,12.00
2014,05,23,09,23,11.90
2014,05,23,09,24,11.80
2014,05,23,09,25,11.70
2014,05,23,09,26,11.70
2014,05,23,09,27,11.60
2014,05,23,09,28,11.60
2014,05,23,09,29,11.60
2014,05,23,09,30,11.60
2014,05,23,09,31,11.60
2014,05,23,09,32,11.60
2014,05,23,09,33,11.60
2014,05,23,09,34,11.50
2014,05,23,09,35,11.50
2014,05,23,09,36,11.50
2014,05,23,09,37,11.50
2014,05,23,09,38,11.50
2014,05,23,09,39,11.50
2014,05,23,09,40,11.50
2014,05,23,09,41,11.50
2014,05,23,09,42,11.50
2014,05,23,09,43,11.50
2014,05,23,09,44,11.40
2014,05,23,09,45,11.40
2014,05,23,09,46,11.40
2014,05,23,09,47,11.40
2014,05,23,09,48,11.40
2014,05,23,09,49,11.40
2014,05,23,09,50,11.40
2014,05,23,09,51,11.40
2014,05,23,09,52,11.40
2014,05,23,09,53,11.40
2014,05,23,09,54,11.40
2014,05,23,09,55,11.40
2014,05,23,09,56,11.40
2014,05,23,09,57,11.50
2014,05,23,09,58,11.50
2014,05,23,09,59,11.50
2014,05,23,10,00,11.50
2014,05,23,10,01,11.60
2014,05,23,10,02,11.60
2014,05,23,10,03,11.60
2014,05,23,10,04,11.60
2014,05,23,10,05,11.60
2014,05,23,10,06,11.60
2014,05,23,10,07,11.60
2014,05,23,10,08,11.70
2014,05,23,10,09,11.70
2014,05,23,10,10,11.70
2014,05,23,10,11,11.70
2014,05,23,10,12,11.80
2014,05,23,10,13,11.80
2014,05,23,10,14,11.80
2014,05,23,10,15,11.80
2014,05,23,10,16,11.80
2014,05,23,10,17,11.80
2014,05,23,10,18,11.80
2014,05,23,10,19,11.70
2014,05,23,10,20,11.70
2014,05,23,10,21,11.70
2014,05,23,10,22,11.70
2014,05,23,10,23,11.70
2014,05,23,10,24,11.70
2014,05,23,10,25,11.70
2014,05,23,10,26,11.70
2014,05,23,10,27,11.70
2014,05,23,10,28,11.70
2014,05,23,10,29,11.80
2014,05,23,10,30,11.80
2014,05,23,10,31,11.80
2014,05,23,10,32,11.80
2014,05,23,10,33,11.90
2014,05,23,10,34,11.90
2014,05,23,10,35,11.80
2014,05,23,10,36,11.80
2014,05,23,10,37,11.80
2014,05,23,10,38,11.80
2014,05,23,10,39,11.80
2014,05,23,10,40,11.80
2014,05,23,10,41,11.80
2014,05,23,10,42,11.80
2014,05,23,10,43,11.80
2014,05,23,10,44,11.70
2014,05,23,10,45,11.70
2014,05,23,10,46,11.70
2014,05,23,10,47,11.70
2014,05,23,10,48,11.70
2014,05,23,10,49,11.80
2014,05,23,10,50,11.80
2014,05,23,10,51,11.80
2014,05,23,10,52,11.80
2014,05,23,10,53,11.80
2014,05,23,10,54,11.80
2014,05,23,10,55,11.80
2014,05,23,10,56,11.90
2014,05,23,10,57,11.90
2014,05,23,10,58,11.90
2014,05,23,10,59,12.00
2014,05,23,11,00,12.00
2014,05,23,11,01,12.00
2014,05,23,11,02,12.00
2014,05,23,11,03,12.00
2014,05,23,11,04,11.90
2014,05,23,11,05,11.90
2014,05,23,11,06,11.90
2014,05,23,11,07,11.90
2014,05,23,11,08,11.90
2014,05,23,11,09,12.10
2014,05,23,11,10,12.10
2014,05,23,11,11,12.20
2014,05,23,11,12,12.20
2014,05,23,11,13,12.30
2014,05,23,11,14,12.30
2014,05,23,11,15,12.40
2014,05,23,11,16,12.40
2014,05,23,11,17,12.40
2014,05,23,11,18,12.50
2014,05,23,11,19,12.70
2014,05,23,11,20,12.80
2014,05,23,11,21,12.80
2014,05,23,11,22,12.90
2014,05,23,11,23,13.00
2014,05,23,11,24,13.00
2014,05,23,11,25,13.10
2014,05,23,11,26,13.20
2014,05,23,11,27,13.30
2014,05,23,11,28,13.40
2014,05,23,11,29,13.50
2014,05,23,11,30,13.60
2014,05,23,11,31,13.60
2014,05,23,11,32,13.70
2014,05,23,11,33,13.70
2014,05,23,11,34,13.70
2014,05,23,11,35,13.70
2014,05,23,11,36,13.80
2014,05,23,11,37,13.70
2014,05,23,11,38,13.70
2014,05,23,11,39,13.70
2014,05,23,11,40,13.60
2014,05,23,11,41,13.60
2014,05,23,11,42,13.60
2014,05,23,11,43,13.60
2014,05,23,11,44,13.60
2014,05,23,11,45,13.70
2014,05,23,11,46,13.70
2014,05,23,11,47,13.80
2014,05,23,11,48,13.80
2014,05,23,11,49,13.80
2014,05,23,11,50,13.80
2014,05,23,11,51,13.90
2014,05,23,11,52,14.00
2014,05,23,11,53,14.10
2014,05,23,11,54,14.10
2014,05,23,11,55,14.20
2014,05,23,11,56,14.30
2014,05,23,11,57,14.30
2014,05,23,11,58,14.30
2014,05,23,11,59,14.30
2014,05,23,12,00,14.30
2014,05,23,12,01,14.30
2014,05,23,12,02,14.30
2014,05,23,12,03,14.30
2014,05,23,12,04,14.30
2014,05,23,12,05,14.30
2014,05,23,12,06,14.30
2014,05,23,12,07,14.40
2014,05,23,12,08,14.40
2014,05,23,12,09,14.50
2014,05,23,12,10,14.60
2014,05,23,12,11,14.60
2014,05,23,12,12,14.60
2014,05,23,12,13,14.70
2014,05,23,12,14,14.70
2014,05,23,12,15,14.60
2014,05,23,12,16,14.50
2014,05,23,12,17,14.50
2014,05,23,12,18,14.40
2014,05,23,12,19,14.30
2014,05,23,12,20,14.30
2014,05,23,12,21,14.30
2014,05,23,12,22,14.40
2014,05,23,12,23,14.40
2014,05,23,12,24,14.50
2014,05,23,12,25,14.50
2014,05,23,12,26,14.50
2014,05,23,12,27,14.40
2014,05,23,12,28,14.40
2014,05,23,12,29,14.30
2014,05,23,12,30,14.20
2014,05,23,12,31,14.20
2014,05,23,12,32,14.20
2014,05,23,12,33,14.20
2014,05,23,12,34,14.20
2014,05,23,12,35,14.10
2014,05,23,12,36,14.10
2014,05,23,12,37,14.10
2014,05,23,12,38,14.10
2014,05,23,12,39,14.20
2014,05,23,12,40,14.20
2014,05,23,12,41,14.20
2014,05,23,12,42,14.20
2014,05,23,12,43,14.20
2014,05,23,12,44,14.20
2014,05,23,12,45,14.20
2014,05,23,12,46,14.20
2014,05,23,12,47,14.20
2014,05,23,12,48,14.20
2014,05,23,12,49,14.30
2014,05,23,12,50,14.40
2014,05,23,12,51,14.40
2014,05,23,12,52,14.50
2014,05,23,12,53,14.50
2014,05,23,12,54,14.60
2014,05,23,12,55,14.60
2014,05,23,12,56,14.70
2014,05,23,12,57,14.70
2014,05,23,12,58,14.60
2014,05,23,12,59,14.60
2014,05,23,13,00,14.60
2014,05,23,13,01,14.70
2014,05,23,13,02,14.70
2014,05,23,13,03,14.70
2014,05,23,13,04,14.70
2014,05,23,13,05,14.70
2014,05,23,13,06,14.70
2014,05,23,13,07,14.60
2014,05,23,13,08,14.50
2014,05,23,13,09,14.40
2014,05,23,13,10,14.40
2014,05,23,13,11,14.30
2014,05,23,13,12,14.30
2014,05,23,13,13,14.20
2014,05,23,13,14,14.10
2014,05,23,13,15,14.10
2014,05,23,13,16,14.10
2014,05,23,13,17,14.00
2014,05,23,13,18,13.90
2014,05,23,13,19,13.80
2014,05,23,13,20,13.80
2014,05,23,13,21,13.80
2014,05,23,13,22,13.70
2014,05,23,13,23,13.60
2014,05,23,13,24,13.50
2014,05,23,13,25,13.50
2014,05,23,13,26,13.50
2014,05,23,13,27,13.60
2014,05,23,13,28,13.70
2014,05,23,13,29,13.70
2014,05,23,13,30,13.80
2014,05,23,13,31,13.80
2014,05,23,13,32,13.80
2014,05,23,13,33,13.80
2014,05,23,13,34,13.80
2014,05,23,13,35,13.80
2014,05,23,13,36,13.80
2014,05,23,13,37,13.90
2014,05,23,13,38,13.90
2014,05,23,13,39,13.90
2014,05,23,13,40,13.90
2014,05,23,13,41,14.00
2014,05,23,13,42,14.00
2014,05,23,13,43,14.00
2014,05,23,13,44,14.10
2014,05,23,13,45,14.10
2014,05,23,13,46,14.20
2014,05,23,13,47,14.20
2014,05,23,13,48,14.20
2014,05,23,13,49,14.10
2014,05,23,13,50,14.10
2014,05,23,13,51,14.10
2014,05,23,13,52,14.10
2014,05,23,13,53,14.00
2014,05,23,13,54,14.00
2014,05,23,13,55,14.10
2014,05,23,13,56,14.10
2014,05,23,13,57,14.20
2014,05,23,13,58,14.20
2014,05,23,13,59,14.30
2014,05,23,14,00,14.30
2014,05,23,14,01,14.30
2014,05,23,14,02,14.30
2014,05,23,14,03,14.30
2014,05,23,14,04,14.20
2014,05,23,14,05,14.20
2014,05,23,14,06,14.20
2014,05,23,14,07,14.20
2014,05,23,14,08,14.10
2014,05,23,14,09,14.10
2014,05,23,14,10,14.10
2014,05,23,14,11,14.10
2014,05,23,14,12,14.00
2014,05,23,14,13,14.00
2014,05,23,14,14,14.00
2014,05,23,14,15,14.10
2014,05,23,14,16,14.10
2014,05,23,14,17,14.10
2014,05,23,14,18,14.20
2014,05,23,14,19,14.10
2014,05,23,14,20,14.10
2014,05,23,14,21,14.20
2014,05,23,14,22,14.20
2014,05,23,14,23,14.20
2014,05,23,14,24,14.20
2014,05,23,14,25,14.30
2014,05,23,14,26,14.30
2014,05,23,14,27,14.30
2014,05,23,14,28,14.40
2014,05,23,14,29,14.50
2014,05,23,14,30,14.50
2014,05,23,14,31,14.60
2014,05,23,14,32,14.70
2014,05,23,14,33,14.70
2014,05,23,14,34,14.80
2014,05,23,14,35,14.80
2014,05,23,14,36,14.80
2014,05,23,14,37,14.70
2014,05,23,14,38,14.70
2014,05,23,14,39,14.60
2014,05,23,14,40,14.60
2014,05,23,14,41,14.60
2014,05,23,14,42,14.60
2014,05,23,14,43,14.60
2014,05,23,14,44,14.60
2014,05,23,14,45,14.60
2014,05,23,14,46,14.70
2014,05,23,14,47,14.80
2014,05,23,14,48,14.90
2014,05,23,14,49,14.90
2014,05,23,14,50,15.00
2014,05,23,14,51,15.10
2014,05,23,14,52,15.20
2014,05,23,14,53,15.20
2014,05,23,14,54,15.30
2014,05,23,14,55,15.30
2014,05,23,14,56,15.30
2014,05,23,14,57,15.30
2014,05,23,14,58,15.20
2014,05,23,14,59,15.20
2014,05,23,15,00,15.00
2014,05,23,15,01,14.90
2014,05,23,15,02,14.80
2014,05,23,15,03,14.80
2014,05,23,15,04,14.70
2014,05,23,15,05,14.70
2014,05,23,15,06,14.70
2014,05,23,15,07,14.60
2014,05,23,15,08,14.60
2014,05,23,15,09,14.50
2014,05,23,15,10,14.40
2014,05,23,15,11,14.40
2014,05,23,15,12,14.50
2014,05,23,15,13,14.60
2014,05,23,15,14,14.60
2014,05,23,15,15,14.70
2014,05,23,15,16,14.70
2014,05,23,15,17,14.70
2014,05,23,15,18,14.70
2014,05,23,15,19,14.70
2014,05,23,15,20,14.80
2014,05,23,15,21,14.80
2014,05,23,15,22,14.80
2014,05,23,15,23,14.90
2014,05,23,15,24,14.90
2014,05,23,15,25,14.90
2014,05,23,15,26,14.90
2014,05,23,15,27,14.80
2014,05,23,15,28,14.80
2014,05,23,15,29,14.80
2014,05,23,15,30,14.70
2014,05,23,15,31,14.60
2014,05,23,15,32,14.60
2014,05,23,15,33,14.60
2014,05,23,15,34,14.60
2014,05,23,15,35,14.60
2014,05,23,15,36,14.60
2014,05,23,15,37,14.60
2014,05,23,15,38,14.60
2014,05,23,15,39,14.60
2014,05,23,15,40,14.70
2014,05,23,15,41,14.70
2014,05,23,15,42,14.80
2014,05,23,15,43,14.90
2014,05,23,15,44,14.90
2014,05,23,15,45,15.00
2014,05,23,15,46,15.20
2014,05,23,15,47,15.30
2014,05,23,15,48,15.30
2014,05,23,15,49,15.30
2014,05,23,15,50,15.40
2014,05,23,15,51,15.50
2014,05,23,15,52,15.60
2014,05,23,15,53,15.60
2014,05,23,15,54,15.70
2014,05,23,15,55,15.70
2014,05,23,15,56,15.70
2014,05,23,15,57,15.80
2014,05,23,15,58,16.00
2014,05,23,15,59,16.20
2014,05,23,16,00,16.60
2014,05,23,16,01,16.90
2014,05,23,16,02,17.30
2014,05,23,16,03,17.70
2014,05,23,16,04,18.00
2014,05,23,16,05,18.20
2014,05,23,16,06,18.50
2014,05,23,16,07,18.70
2014,05,23,16,08,18.80
2014,05,23,16,09,18.90
2014,05,23,16,10,19.00
2014,05,23,16,11,19.00
2014,05,23,16,12,19.00
2014,05,23,16,13,19.00
2014,05,23,16,14,18.90
2014,05,23,16,15,18.90
2014,05,23,16,16,18.80
2014,05,23,16,17,18.80
2014,05,23,16,18,18.80
2014,05,23,16,19,18.80
2014,05,23,16,20,18.80
2014,05,23,16,21,18.80
2014,05,23,16,22,18.90
2014,05,23,16,23,18.80
2014,05,23,16,24,18.90
2014,05,23,16,25,18.90
2014,05,23,16,26,19.00
2014,05,23,16,27,19.10
2014,05,23,16,28,19.10
2014,05,23,16,29,19.10
2014,05,23,16,30,19.10
2014,05,23,16,31,19.00
2014,05,23,16,32,19.00
2014,05,23,16,33,19.00
2014,05,23,16,34,18.90
2014,05,23,16,35,19.00
2014,05,23,16,36,19.00
2014,05,23,16,37,19.10
2014,05,23,16,38,19.10
2014,05,23,16,39,19.20
2014,05,23,16,40,19.20
2014,05,23,16,41,19.30
2014,05,23,16,42,19.30
2014,05,23,16,43,19.30
2014,05,23,16,44,19.20
2014,05,23,16,45,19.20
2014,05,23,16,46,19.30
2014,05,23,16,47,19.30
2014,05,23,16,48,19.40
2014,05,23,16,49,19.40
2014,05,23,16,50,19.40
2014,05,23,16,51,19.40
2014,05,23,16,52,19.30
2014,05,23,16,53,19.30
2014,05,23,16,54,19.30
2014,05,23,16,55,19.30
2014,05,23,16,56,19.30
2014,05,23,16,57,19.40
2014,05,23,16,58,19.50
2014,05,23,16,59,19.50
2014,05,23,17,00,19.50
2014,05,23,17,01,19.60
2014,05,23,17,02,19.60
2014,05,23,17,03,19.70
2014,05,23,17,04,19.70
2014,05,23,17,05,19.70
2014,05,23,17,06,19.70
2014,05,23,17,07,19.70
2014,05,23,17,08,19.60
2014,05,23,17,09,19.60
2014,05,23,17,10,19.50
2014,05,23,17,11,19.40
2014,05,23,17,12,19.40
2014,05,23,17,13,19.40
2014,05,23,17,14,19.40
2014,05,23,17,15,19.40
2014,05,23,17,16,19.40
2014,05,23,17,17,19.40
2014,05,23,17,18,19.40
2014,05,23,17,19,19.40